Location: Recife
(8.0585°S, 34.8848°W)
Time: 12:05:34
(UTC-03:00)

Transit 4A - Pass Details

Date: 20 April 2026
Orbit: 861 x 980 km, 66.8° (Epoch: 12 May)

Event Time Altitude Azimuth Distance (km) Brightness Sun altitude
Rises 23:38:08 0° 337° (NNW) 3,649 - -83.8°
Reaches altitude 10° 23:40:43 10° 335° (NNW) 2,696 - -83.3°
Maximum altitude 23:47:00 75° 251° (WSW) 983 - -82.0°
Drops below altitude 10° 23:53:10 10° 165° (SSE) 2,640 - -80.6°
Sets 23:55:40 0° 163° (SSE) 3,568 - -80.1°
